Location: DARK SKY Beskydy - Park tmavé oblohy, www.darkskybeskydy.cz
(49.4926°N, 18.5016°E)
Time: 12:11:32
(UTC+02:00)

Vanguard 1 - Pass Details

Date: 27 February 2024
Orbit: 653 x 3825 km, 34.2° (Epoch: 12 April)

Event Time Altitude Azimuth Distance (km) Brightness Sun altitude
Rises 21:07:46 0° 253° (WSW) 5,762 14.5 -35.6°
Reaches altitude 10° 21:11:07 10° 248° (WSW) 5,112 14.0 -36.0°
Maximum altitude 21:26:35 50° 179° (S) 3,990 12.7 -38.0°
Enters shadow 21:28:07 49° 169° (SSE) 4,084 12.7 -38.2°
Drops below altitude 10° 21:48:11 10° 114° (ESE) 6,913 - -40.6°
Sets 21:53:41 0° 110° (ESE) 7,844 - -41.2°
